Temperature
7 6 6 6 7 8 7 7 8 8 9 8 8 8 9 9 9 8 9 10 11 12 13 12 12 12 12 12 12 12 11 11 11 11 11 11 11 11 10 10 10 10 10 10
5 5 6 7 7 8 7 7 7 8 8 8 8 8 8 8 8 9 9 10 11 12 12 12 12 12 12 12 12 12 11 11 11 11 11 11 11 10 10 10 10 10 9 9
5 6 7 7 7 7 7 7 7 7 8 8 8 8 8 8 8 9 10 11 11 12 12 12 12 12 12 12 12 12 11 11 11 11 10 10 10 10 10 10 10 9 9 9
5 6 6 6 6 7 6 7 7 7 7 6 7 6 7 7 7 7 8 9 10 11 12 12 12 12 12 12 12 12 11 11 11 10 10 10 10 10 10 10 9 9 9 9
4 5 6 6 6 7 6 7 7 7 6 5 6 6 6 6 7 7 7 9 10 11 11 12 12 12 12 12 12 11 11 11 11 10 10 10 10 10 9 9 9 9 8 8
4 5 5 6 6 7 6 6 6 5 5 5 5 5 6 6 7 8 7 8 9 10 11 11 12 12 12 12 11 11 11 11 10 10 10 10 9 9 9 9 9 8 8 8
4 4 5 6 5 6 6 5 5 5 4 4 5 5 6 6 7 7 7 7 9 9 10 11 11 11 11 11 11 11 10 10 10 10 9 9 9 9 9 9 8 8 8 8
3 3 4 5 5 5 5 5 5 4 4 4 4 4 5 6 6 6 7 7 8 8 9 10 10 10 11 11 11 10 10 10 10 9 9 9 9 9 8 8 8 8 7 7
2 3 4 4 5 5 5 5 5 4 4 4 4 4 4 6 5 5 5 6 7 8 8 9 10 10 10 10 10 10 10 10 9 9 9 9 8 8 8 8 7 7 7 7
2 2 2 4 5 4 5 4 4 4 4 5 5 5 5 6 5 5 4 4 6 7 7 8 9 9 9 10 10 10 9 9 9 9 8 8 8 8 7 7 7 7 6 6
1 1 1 3 3 3 3 4 4 4 4 4 5 5 5 5 5 4 3 4 5 6 7 7 8 8 9 9 9 9 9 8 8 8 8 8 7 7 7 7 6 6 6 6
0 -0 0 1 2 2 3 3 3 4 3 3 3 4 5 4 3 3 3 4 4 5 6 6 7 7 8 8 8 8 8 8 8 8 7 7 7 7 6 6 6 6 5 5
0 -0 0 1 1 1 1 2 2 2 2 2 3 5 4 3 3 3 3 3 4 5 5 6 6 7 7 7 7 7 7 7 7 7 7 7 7 6 6 6 5 5 5 5
1 -1 0 1 1 0 0 1 1 2 2 2 2 3 4 3 2 2 2 3 3 4 5 5 6 6 6 7 7 7 7 7 6 6 6 6 6 6 5 5 5 5 4 4
-0 -1 -1 -0 1 0 1 1 1 2 2 2 3 3 3 3 2 2 2 2 3 3 4 5 5 6 6 6 6 6 6 6 6 6 6 6 5 5 5 5 4 4 4 4
-2 -2 -1 -0 1 1 1 1 1 1 2 2 2 2 2 2 2 1 1 2 2 3 3 4 5 5 5 6 6 5 5 5 5 5 5 5 5 5 4 4 4 4 4 3
-2 -2 -1 -1 0 1 0 0 0 0 0 1 2 2 1 1 1 1 1 1 2 2 3 4 4 5 5 5 5 5 5 5 5 5 5 4 4 4 4 4 3 3 3 3
-2 -2 -2 -1 -0 -0 1 0 -0 0 0 0 1 1 1 1 1 1 2 2 2 2 3 3 4 4 5 5 5 5 4 5 4 4 4 4 4 4 3 3 3 3 3 3
-2 -2 -2 -2 -1 -0 0 -0 -1 -1 -0 -1 -0 0 0 0 1 1 1 2 2 2 3 3 4 4 4 4 4 4 4 4 4 4 3 3 3 3 3 3 3 3 2 2
-3 -3 -3 -3 -1 -1 -0 -1 -1 -0 -0 -1 -1 -1 -1 -0 0 0 1 1 2 2 3 3 3 3 3 3 3 4 3 3 3 3 3 3 3 3 3 2 2 2 2 2
-3 -3 -3 -3 -2 -2 -2 -2 -1 -0 -0 -1 -2 -1 -1 -1 -0 -0 0 1 1 2 2 2 3 3 3 3 3 3 3 3 3 2 2 2 2 2 2 2 2 2 1 1
-4 -4 -4 -4 -3 -2 -2 -2 -2 -2 -2 -2 -2 -1 -1 -1 -1 -1 -0 0 0 1 1 2 2 2 2 2 2 2 2 2 2 2 2 2 2 2 1 1 1 1 1 1
-4 -4 -4 -4 -3 -3 -3 -3 -3 -3 -3 -2 -2 -2 -1 -2 -2 -1 -1 -1 -0 0 1 1 1 1 1 1 1 2 1 1 1 1 1 1 1 1 1 1 1 1 0 0
-5 -5 -5 -4 -4 -4 -3 -3 -3 -3 -3 -2 -2 -2 -2 -2 -2 -2 -2 -1 -1 -0 -0 0 0 0 0 0 1 1 1 1 1 1 1 1 1 0 0 0 0 -0 -0 -0
-5 -6 -5 -5 -5 -4 -4 -4 -3 -3 -3 -3 -3 -2 -2 -2 -2 -2 -2 -2 -1 -1 -1 -1 -0 -0 -0 -0 -0 -0 0 0 0 0 0 -0 -0 -0 -0 -1 -1 -1 -1 -1
-6 -6 -6 -5 -5 -5 -5 -4 -4 -4 -3 -3 -3 -3 -3 -3 -3 -2 -2 -2 -2 -2 -1 -1 -1 -1 -1 -1 -1 -1 -1 -1 -0 -0 -1 -1 -1 -1 -1 -1 -1 -2 -2 -2
Wind_Speed
4 5 11 13 11 5 6 6 6 6 3 4 8 11 10 6 6 8 8 9 10 11 8 7 8 9 9 9 10 10 9 8 7 5 4 4 2 2 1 1 2 3 3 3
3 10 10 6 6 4 4 5 5 3 1 3 5 10 9 8 8 9 10 11 11 9 6 7 8 9 11 12 12 11 11 10 9 7 5 3 3 2 1 1 1 2 3 3
9 5 7 7 7 8 7 8 6 4 2 2 2 8 7 6 5 6 8 9 9 11 11 9 9 10 11 12 13 12 12 10 9 7 5 4 4 3 1 1 1 1 2 2
6 5 6 8 9 9 9 7 6 4 2 3 2 6 7 5 5 7 8 8 9 9 8 8 9 10 11 12 11 11 11 10 9 9 8 8 5 4 4 2 2 1 2 2
6 5 7 9 8 8 5 5 5 4 3 2 3 4 8 3 6 9 9 9 8 8 8 9 10 11 10 10 10 10 10 9 9 9 9 8 5 3 2 2 2 1 1 1
4 3 4 6 4 6 5 4 3 2 2 5 8 7 8 5 8 7 7 7 7 6 6 7 7 7 7 7 8 9 10 9 9 9 9 8 8 6 4 3 3 2 1 1
2 2 1 2 4 4 6 6 2 2 3 8 5 7 10 7 6 7 7 6 5 4 5 5 6 8 8 9 9 9 10 9 9 9 9 8 8 7 7 5 4 3 1 1
3 3 3 2 4 6 7 8 7 7 7 4 4 8 8 6 4 4 4 3 2 2 3 5 7 8 9 10 10 10 11 9 9 9 8 7 7 5 4 5 4 4 3 3
1 2 2 2 1 6 6 6 5 4 2 2 5 6 8 3 2 2 2 1 1 2 2 3 5 6 7 9 9 11 11 9 9 8 7 6 6 5 5 4 3 3 2 2
1 1 3 3 2 2 5 6 4 5 5 5 4 5 5 4 3 2 2 2 2 1 0 1 3 4 5 6 7 8 9 9 8 8 7 6 6 5 5 4 4 3 2 2
1 1 3 2 2 3 2 4 4 4 4 5 4 6 3 4 2 1 2 2 1 1 1 1 1 2 4 5 6 6 7 6 6 6 6 5 5 4 4 4 4 3 2 2
1 2 1 3 4 2 2 4 5 5 4 3 3 5 3 1 1 0 1 2 3 2 2 2 2 3 4 5 5 6 6 6 6 6 5 5 4 4 4 3 3 3 2 2
1 2 2 3 3 2 1 1 2 3 3 4 4 5 2 3 3 3 2 3 3 3 3 3 3 3 3 4 4 4 5 5 5 5 5 5 4 4 4 3 3 2 2 1
2 1 3 5 5 3 3 4 3 3 4 5 7 6 5 4 3 3 3 2 2 2 3 3 2 2 3 3 4 4 4 4 5 5 5 5 4 4 4 3 3 2 2 2
2 1 2 4 5 3 4 5 6 6 6 7 8 7 6 4 2 2 1 2 3 3 3 2 2 2 2 3 3 4 4 4 5 5 5 4 3 3 4 3 3 2 2 1
3 0 1 3 4 3 4 4 5 6 5 5 5 7 3 2 1 1 1 1 1 2 2 1 1 2 2 3 3 4 4 4 5 5 4 4 4 4 3 3 3 3 2 2
1 0 1 3 5 2 4 4 4 3 3 5 7 7 1 1 1 1 1 1 1 1 1 0 1 1 2 3 4 4 4 4 5 5 4 4 4 4 3 3 3 3 2 2
2 1 1 1 1 3 4 1 2 3 2 2 3 3 2 3 2 1 1 1 1 0 1 1 0 1 1 2 3 4 4 5 5 5 4 4 4 3 3 3 3 2 1 1
3 3 1 1 2 4 3 3 2 1 3 2 2 3 1 1 2 3 3 1 0 1 1 1 1 1 3 3 3 5 5 5 5 4 3 3 4 4 3 2 2 1 2 1
2 2 2 1 2 4 3 6 6 1 3 4 2 2 0 1 1 3 3 3 3 3 2 2 3 3 4 3 4 6 5 4 3 3 3 3 3 4 3 2 2 1 1 1
3 2 1 2 2 3 5 8 3 2 4 6 4 2 1 1 3 1 2 2 3 3 3 3 4 4 3 3 5 6 4 3 2 3 3 3 3 3 3 2 2 2 1 1
1 0 1 1 1 4 5 4 0 4 5 5 4 3 1 1 2 3 3 3 4 4 4 4 5 5 4 3 5 5 3 2 3 4 4 3 3 2 3 3 2 2 2 2
1 2 2 3 3 3 2 3 4 4 4 4 4 3 2 2 2 3 3 3 4 4 4 4 5 5 5 4 4 5 2 3 4 5 4 3 3 3 3 3 2 2 2 1
3 2 1 2 4 4 4 5 5 5 4 4 3 3 2 2 2 3 3 3 4 4 4 4 5 5 4 4 4 3 3 4 5 5 4 3 4 3 3 2 2 1 1 1
3 2 1 3 5 5 4 5 6 6 5 5 5 5 3 3 3 2 3 3 3 4 4 4 4 4 3 4 4 4 3 5 6 5 4 3 3 3 2 2 1 1 0 0
1 1 1 3 4 3 5 6 6 5 5 5 5 5 5 3 2 3 3 3 3 3 3 4 4 4 3 4 4 4 3 4 5 4 3 3 2 2 2 2 3 4 3 4
Wind_Direction
169 186 206 202 199 194 171 183 215 226 211 191 226 246 256 249 230 235 234 227 226 226 222 198 191 182 176 176 175 175 169 164 153 147 147 147 160 159 150 131 136 135 127 123
164 225 219 189 189 190 191 205 225 263 229 207 245 262 259 244 231 226 227 228 226 224 213 198 190 184 183 183 183 179 176 170 169 167 159 146 142 151 164 150 131 144 140 135
203 219 186 184 191 200 217 208 210 218 340 339 307 287 257 255 235 236 232 230 224 216 213 203 195 193 187 186 185 183 180 175 170 155 133 110 92 82 99 158 177 193 171 156
220 226 183 192 205 195 226 208 191 190 186 261 187 271 271 252 256 245 241 232 226 220 213 203 194 192 192 192 185 180 176 172 167 157 157 156 162 173 192 185 193 203 173 159
222 202 191 205 208 187 202 169 173 183 183 254 222 232 275 254 252 249 241 235 230 220 208 204 199 194 190 184 179 176 170 169 166 165 167 165 165 166 155 146 157 170 179 158
244 249 206 205 198 174 153 110 85 76 115 243 216 203 267 226 225 245 243 238 233 219 209 207 199 181 177 172 169 168 166 169 168 167 168 171 167 159 151 158 166 180 210 226
260 273 243 162 143 165 154 139 145 187 213 239 198 207 248 243 230 233 246 247 245 223 206 198 186 178 175 172 171 169 168 171 171 170 174 176 172 169 173 178 182 184 202 238
181 236 225 192 178 181 188 169 176 188 206 241 185 225 251 259 265 258 256 247 251 231 207 199 191 181 177 176 173 170 172 172 173 175 179 176 170 173 180 183 184 194 208 220
184 254 311 287 251 156 164 195 176 147 144 211 237 269 296 272 320 332 339 6 302 258 224 195 178 171 171 172 176 175 173 169 173 176 172 170 171 174 179 179 178 190 204 210
139 269 303 297 73 16 168 155 142 162 173 221 252 251 243 253 269 322 355 342 322 343 35 141 157 165 167 169 169 167 168 170 171 170 172 174 177 179 175 171 182 191 197 192
19 150 325 1 179 196 131 159 169 167 183 178 220 257 241 225 237 247 303 332 350 18 73 119 127 143 143 143 150 158 159 155 158 164 165 163 168 167 166 175 188 190 189 181
6 106 293 283 292 285 205 189 171 178 209 189 192 262 317 241 287 115 19 18 27 40 49 74 101 106 119 137 146 152 156 157 162 160 154 155 154 153 159 171 176 170 172 179
5 84 17 346 345 0 53 200 192 151 146 184 202 257 342 37 30 28 44 34 37 42 47 53 75 99 122 134 139 142 149 152 147 145 144 143 147 151 157 160 154 150 153 152
344 138 191 220 248 245 270 266 240 183 191 213 230 251 300 333 351 354 11 24 37 43 52 57 70 93 120 128 132 135 136 136 138 139 141 148 156 158 155 146 137 135 138 133
51 192 240 268 266 254 263 258 231 224 212 211 234 239 257 272 269 289 336 30 44 37 35 46 77 105 114 116 120 126 127 129 134 135 138 149 145 137 129 124 125 120 111 106
34 348 292 291 281 278 289 282 246 241 242 239 245 262 264 296 348 10 13 72 40 1 4 32 65 105 119 130 134 131 131 134 133 135 138 135 128 124 123 124 118 101 88 81
337 93 333 282 298 326 282 265 225 222 234 209 234 250 219 270 256 247 243 216 199 272 344 43 113 141 147 151 149 148 145 133 129 131 131 129 128 125 127 124 110 100 93 85
181 165 185 277 355 237 255 312 246 233 263 251 254 258 224 230 264 314 293 193 217 324 336 343 74 109 107 110 112 116 115 121 125 126 126 127 124 122 117 115 115 106 101 98
183 165 155 169 243 276 307 347 350 260 281 323 289 288 316 81 18 338 354 37 295 282 300 329 29 103 104 104 113 112 108 112 115 124 131 136 136 133 126 120 115 104 110 77
51 113 139 163 208 240 295 321 311 231 287 336 329 277 295 75 213 271 327 6 27 33 32 37 46 71 87 92 110 109 112 113 123 138 142 141 142 141 142 141 116 97 125 125
3 17 156 206 233 270 322 322 346 152 278 322 315 271 223 231 236 262 15 33 53 49 42 53 66 71 69 90 108 108 111 124 142 126 115 112 117 126 131 114 104 102 92 71
192 10 232 173 224 270 340 10 43 280 313 322 323 322 347 42 57 58 57 64 66 55 47 57 72 67 52 72 104 106 106 107 103 105 102 97 92 93 95 97 87 87 87 66
222 216 216 206 227 287 323 315 311 319 319 324 333 349 64 66 44 40 49 58 61 64 59 57 78 74 56 53 87 105 95 92 100 97 95 90 81 76 84 100 90 73 68 62
312 330 229 275 286 297 315 323 337 341 333 338 354 17 45 68 61 47 45 50 55 56 59 63 79 78 58 47 57 75 85 94 98 96 90 87 85 73 64 70 85 92 75 27
293 310 291 279 294 317 331 340 339 350 7 20 24 24 37 72 62 54 46 46 53 52 54 68 81 81 65 54 56 53 69 95 94 91 87 80 78 81 69 52 53 46 333 250
308 244 233 257 283 284 298 322 335 355 9 19 27 21 18 32 54 59 56 50 55 57 57 68 72 75 67 64 61 52 61 91 101 94 84 80 77 73 70 58 35 29 26 13
Height
1447 1452 1450 1450 1452 1454 1458 1461 1462 1461 1459 1462 1462 1460 1457 1456 1457 1457 1458 1459 1460 1462 1465 1469 1472 1476 1480 1483 1486 1490 1493 1496 1498 1500 1502 1504 1506 1508 1510 1511 1512 1513 1513 1513
1449 1449 1446 1449 1451 1453 1456 1460 1461 1460 1459 1460 1461 1459 1455 1453 1453 1452 1453 1453 1455 1458 1461 1464 1467 1471 1474 1478 1482 1486 1489 1492 1495 1497 1500 1502 1504 1506 1508 1509 1510 1510 1511 1511
1445 1444 1444 1447 1450 1453 1455 1458 1459 1461 1461 1460 1461 1457 1452 1448 1448 1448 1448 1449 1450 1452 1455 1458 1462 1465 1469 1473 1477 1481 1485 1488 1491 1494 1497 1499 1501 1503 1505 1506 1507 1508 1508 1509
1443 1442 1442 1445 1448 1451 1454 1454 1456 1458 1464 1467 1464 1466 1452 1448 1446 1444 1443 1444 1445 1447 1450 1453 1456 1460 1463 1468 1472 1477 1481 1484 1488 1490 1493 1495 1497 1499 1501 1502 1504 1505 1506 1506
1441 1440 1441 1444 1445 1447 1450 1451 1455 1458 1464 1468 1466 1469 1452 1447 1445 1441 1439 1439 1440 1443 1445 1448 1451 1454 1459 1464 1468 1473 1477 1480 1484 1487 1490 1492 1494 1497 1499 1500 1501 1502 1503 1504
1440 1439 1439 1440 1441 1444 1449 1453 1458 1463 1466 1470 1464 1467 1453 1447 1438 1436 1435 1435 1436 1439 1441 1444 1447 1451 1455 1459 1464 1468 1472 1476 1480 1483 1486 1489 1491 1493 1495 1497 1498 1499 1500 1501
1441 1439 1438 1438 1442 1445 1447 1456 1464 1467 1472 1467 1460 1460 1448 1436 1433 1433 1432 1432 1433 1435 1437 1440 1442 1446 1450 1455 1459 1464 1468 1472 1476 1479 1482 1485 1488 1490 1492 1494 1495 1496 1496 1497
1444 1443 1439 1437 1439 1443 1446 1450 1458 1464 1464 1462 1459 1456 1442 1433 1431 1430 1431 1431 1431 1432 1434 1436 1439 1442 1446 1450 1455 1459 1463 1467 1472 1476 1479 1482 1485 1487 1489 1491 1492 1493 1494 1494
1446 1443 1439 1437 1437 1439 1444 1447 1448 1456 1461 1462 1457 1451 1440 1431 1430 1429 1429 1429 1429 1430 1431 1433 1436 1439 1443 1447 1451 1455 1460 1464 1468 1472 1476 1479 1481 1484 1486 1488 1489 1490 1491 1492
1445 1447 1442 1438 1436 1438 1440 1443 1450 1453 1456 1453 1450 1448 1440 1432 1431 1430 1430 1429 1429 1429 1430 1432 1434 1437 1441 1445 1449 1453 1457 1461 1465 1469 1473 1476 1478 1481 1483 1485 1486 1487 1488 1489
1445 1449 1446 1441 1441 1441 1443 1444 1444 1448 1449 1451 1451 1443 1432 1431 1430 1431 1430 1429 1429 1429 1430 1431 1433 1436 1439 1443 1447 1450 1454 1458 1462 1466 1470 1473 1475 1478 1480 1481 1483 1484 1485 1486
1447 1450 1451 1447 1444 1442 1442 1442 1444 1446 1451 1453 1452 1445 1431 1431 1430 1430 1430 1430 1430 1430 1431 1432 1433 1435 1438 1441 1445 1448 1452 1456 1460 1463 1467 1470 1472 1475 1476 1478 1480 1481 1482 1483
1447 1451 1453 1448 1449 1446 1445 1444 1444 1445 1450 1453 1449 1441 1431 1431 1431 1431 1431 1431 1431 1431 1432 1433 1434 1435 1438 1440 1444 1447 1451 1454 1458 1461 1464 1467 1469 1472 1473 1475 1477 1478 1479 1480
1446 1451 1452 1451 1447 1448 1448 1445 1444 1444 1448 1450 1446 1439 1434 1433 1432 1432 1432 1432 1432 1433 1433 1433 1434 1436 1438 1441 1443 1446 1449 1453 1456 1459 1462 1464 1467 1469 1471 1473 1474 1476 1476 1477
1447 1452 1451 1448 1445 1446 1444 1443 1442 1442 1442 1443 1439 1438 1434 1434 1434 1434 1433 1433 1433 1433 1433 1434 1435 1436 1438 1440 1443 1446 1449 1451 1454 1457 1460 1462 1464 1467 1468 1470 1472 1473 1474 1474
1450 1452 1450 1448 1443 1443 1442 1441 1440 1439 1439 1439 1437 1436 1434 1434 1434 1434 1433 1433 1433 1434 1434 1434 1435 1436 1438 1440 1443 1445 1448 1450 1453 1455 1458 1460 1463 1464 1466 1468 1469 1470 1471 1472
1453 1453 1453 1450 1444 1441 1443 1440 1440 1439 1438 1437 1436 1433 1434 1434 1433 1433 1433 1433 1433 1434 1434 1434 1435 1437 1438 1441 1443 1445 1447 1449 1452 1454 1456 1459 1461 1463 1464 1466 1467 1468 1469 1470
1451 1453 1454 1452 1448 1448 1441 1438 1437 1437 1436 1435 1433 1431 1432 1432 1432 1433 1433 1433 1433 1433 1434 1434 1435 1437 1439 1440 1442 1444 1446 1448 1450 1453 1455 1457 1459 1461 1463 1464 1465 1466 1467 1467
1448 1451 1455 1455 1452 1444 1440 1439 1439 1439 1436 1435 1434 1432 1432 1432 1432 1432 1432 1433 1433 1433 1434 1434 1435 1437 1438 1440 1442 1444 1445 1447 1450 1452 1454 1456 1458 1460 1461 1462 1463 1464 1465 1466
1449 1451 1455 1456 1452 1447 1443 1440 1437 1437 1436 1434 1433 1432 1433 1432 1434 1433 1432 1432 1432 1433 1434 1434 1435 1437 1438 1440 1441 1443 1445 1447 1449 1451 1453 1455 1457 1458 1459 1461 1462 1463 1463 1464
1454 1455 1457 1456 1453 1447 1445 1440 1437 1441 1439 1435 1433 1432 1431 1432 1432 1432 1431 1432 1432 1433 1434 1434 1435 1436 1438 1439 1441 1442 1444 1446 1448 1450 1452 1454 1455 1457 1458 1459 1460 1461 1461 1462
1458 1458 1459 1458 1455 1452 1445 1442 1443 1442 1437 1434 1432 1431 1431 1430 1431 1431 1431 1431 1432 1433 1434 1434 1435 1436 1438 1440 1441 1441 1443 1445 1447 1449 1451 1453 1454 1456 1457 1458 1459 1459 1459 1459
1458 1458 1456 1455 1453 1448 1445 1444 1442 1440 1438 1435 1432 1431 1430 1430 1431 1431 1431 1431 1432 1433 1434 1435 1436 1437 1438 1440 1441 1442 1444 1445 1447 1448 1450 1452 1453 1454 1455 1456 1457 1457 1457 1457
1457 1455 1455 1453 1448 1446 1445 1443 1441 1439 1437 1435 1433 1432 1432 1431 1431 1431 1432 1432 1433 1433 1434 1435 1436 1437 1438 1439 1441 1442 1444 1445 1447 1448 1449 1451 1452 1453 1454 1455 1455 1455 1455 1455
1458 1456 1455 1453 1449 1445 1443 1442 1441 1439 1437 1435 1434 1433 1433 1432 1432 1432 1432 1433 1433 1434 1435 1436 1436 1437 1438 1440 1441 1442 1443 1445 1446 1447 1449 1450 1451 1452 1453 1453 1453 1453 1453 1453
1458 1457 1456 1453 1449 1448 1445 1442 1441 1439 1437 1436 1435 1434 1434 1433 1433 1433 1433 1433 1434 1435 1435 1436 1437 1438 1439 1440 1441 1442 1443 1445 1446 1447 1448 1449 1450 1451 1451 1451 1452 1452 1452 1451